This demonstration page uses our WeatherBlox Daily Observations layout. Learn more.

Left ArrowRight Arrow

Hourly Observations for March 7, 2021

Temp ( °F °C ) Dew Point ( °F °C ) Humidity (%) Winds ( mph kmh ) Pressure ( in mb ) Visibility ( mi km ) Precip ( " mm )
12:53 am 00:53 Mostly Cloudy 32 undefined 27 -2.8 82 82 SW 12 19 29.94 1014 10 16 N/A
1:53 am 01:53 Mostly Clear 31 -0.6 26 -3.3 82 82 SW 13 20 29.97 1015 10 16 N/A
2:53 am 02:53 Cloudy 29 -1.7 25 -3.9 85 85 SW 12 19 29.98 1015 10 16 N/A
3:53 am 03:53 Cloudy 30 -1.1 26 -3.3 85 85 SW 14 22 29.99 1016 10 16 N/A
4:53 am 04:53 Clear 31 -0.6 26 -3.3 82 82 SW 8 13 30.00 1016 10 16 N/A
5:53 am 05:53 Clear 32 undefined 26 -3.3 79 79 SW 12 19 30.00 1016 10 16 N/A
6:53 am 06:53 Partly Cloudy 29 -1.7 24 -4.4 82 82 WSW 8 13 30.03 1017 10 16 N/A
7:53 am 07:53 Sunny 31 -0.6 26 -3.3 82 82 SW 8 13 30.04 1017 10 16 N/A
8:53 am 08:53 Sunny 37 2.8 28 -2.2 70 70 SW 13 20 30.05 1018 10 16 N/A
9:53 am 09:53 Sunny 41 5 28 -2.2 60 60 SW 13 20 30.05 1018 10 16 N/A
10:53 am 10:53 Sunny 43 6.1 28 -2.2 56 56 SW 16 26 30.05 1018 10 16 N/A
11:53 am 11:53 Sunny 46 7.8 29 -1.7 51 51 WSW 14 22 30.04 1017 10 16 N/A
12:53 pm 12:53 Sunny 49 9.4 25 -3.9 39 39 WSW 17 28 30.02 1017 10 16 N/A
1:53 pm 13:53 Sunny 50 10 23 -5 35 35 SW 16 26 30.00 1016 10 16 N/A
2:53 pm 14:53 Sunny 51 10.6 20 -6.7 29 29 WSW 16 26 30.01 1016 10 16 N/A
3:53 pm 15:53 Sunny 51 10.6 19 -7.2 28 28 WSW 16 26 30.01 1016 10 16 N/A
4:53 pm 16:53 Sunny 50 10 19 -7.2 29 29 WSW 10 17 30.01 1016 10 16 N/A
5:53 pm 17:53 Sunny 46 7.8 22 -5.6 38 38 W 6 9 30.02 1017 10 16 N/A
6:53 pm 18:53 Clear 34 1.1 22 -5.6 61 61 S 5 7 30.06 1018 10 16 N/A
7:53 pm 19:53 Clear 33 0.6 23 -5 66 66 S 12 19 30.06 1018 10 16 N/A
8:53 pm 20:53 Clear 30 -1.1 23 -5 75 75 W 5 7 30.08 1019 10 16 N/A
9:53 pm 21:53 Clear 31 -0.6 22 -5.6 69 69 SW 8 13 30.08 1019 10 16 N/A
10:53 pm 22:53 Clear 36 2.2 25 -3.9 64 64 S 12 19 30.08 1019 10 16 N/A
11:53 pm 23:53 Clear 33 0.6 24 -4.4 70 70 S 10 17 30.09 1019 10 16 N/A

Powered by AerisWeather